Year,Month,Day,Hour,Minute,Value (Times are PST for temperature in C)
2020,03,21,00,00,4.10
2020,03,21,00,01,4.10
2020,03,21,00,02,4.10
2020,03,21,00,03,4.00
2020,03,21,00,04,4.00
2020,03,21,00,05,4.00
2020,03,21,00,06,4.00
2020,03,21,00,07,3.90
2020,03,21,00,08,3.90
2020,03,21,00,09,3.90
2020,03,21,00,10,3.90
2020,03,21,00,11,3.90
2020,03,21,00,12,3.80
2020,03,21,00,13,3.80
2020,03,21,00,14,3.80
2020,03,21,00,15,3.80
2020,03,21,00,16,3.80
2020,03,21,00,17,3.80
2020,03,21,00,18,3.80
2020,03,21,00,19,3.80
2020,03,21,00,20,3.80
2020,03,21,00,21,3.80
2020,03,21,00,22,3.80
2020,03,21,00,23,3.80
2020,03,21,00,24,3.80
2020,03,21,00,25,3.70
2020,03,21,00,26,3.70
2020,03,21,00,27,3.70
2020,03,21,00,28,3.70
2020,03,21,00,29,3.70
2020,03,21,00,30,3.70
2020,03,21,00,31,3.60
2020,03,21,00,32,3.60
2020,03,21,00,33,3.60
2020,03,21,00,34,3.60
2020,03,21,00,35,3.50
2020,03,21,00,36,3.50
2020,03,21,00,37,3.50
2020,03,21,00,38,3.50
2020,03,21,00,39,3.50
2020,03,21,00,40,3.40
2020,03,21,00,41,3.40
2020,03,21,00,42,3.40
2020,03,21,00,43,3.40
2020,03,21,00,44,3.40
2020,03,21,00,45,3.40
2020,03,21,00,46,3.40
2020,03,21,00,47,3.30
2020,03,21,00,48,3.30
2020,03,21,00,49,3.30
2020,03,21,00,50,3.30
2020,03,21,00,51,3.30
2020,03,21,00,52,3.30
2020,03,21,00,53,3.30
2020,03,21,00,54,3.30
2020,03,21,00,55,3.30
2020,03,21,00,56,3.30
2020,03,21,00,57,3.20
2020,03,21,00,58,3.20
2020,03,21,00,59,3.20
2020,03,21,01,00,3.10
2020,03,21,01,01,3.10
2020,03,21,01,02,3.10
2020,03,21,01,03,3.10
2020,03,21,01,04,3.10
2020,03,21,01,05,3.10
2020,03,21,01,06,3.10
2020,03,21,01,07,3.00
2020,03,21,01,08,2.90
2020,03,21,01,09,2.90
2020,03,21,01,10,2.90
2020,03,21,01,11,2.90
2020,03,21,01,12,2.90
2020,03,21,01,13,2.80
2020,03,21,01,14,2.80
2020,03,21,01,15,2.80
2020,03,21,01,16,2.80
2020,03,21,01,17,2.80
2020,03,21,01,18,2.80
2020,03,21,01,19,2.70
2020,03,21,01,20,2.70
2020,03,21,01,21,2.70
2020,03,21,01,22,2.70
2020,03,21,01,23,2.70
2020,03,21,01,24,2.70
2020,03,21,01,25,2.70
2020,03,21,01,26,2.70
2020,03,21,01,27,2.70
2020,03,21,01,28,2.70
2020,03,21,01,29,2.70
2020,03,21,01,30,2.70
2020,03,21,01,31,2.60
2020,03,21,01,32,2.60
2020,03,21,01,33,2.60
2020,03,21,01,34,2.60
2020,03,21,01,35,2.60
2020,03,21,01,36,2.60
2020,03,21,01,37,2.60
2020,03,21,01,38,2.60
2020,03,21,01,39,2.60
2020,03,21,01,40,2.60
2020,03,21,01,41,2.50
2020,03,21,01,42,2.50
2020,03,21,01,43,2.50
2020,03,21,01,44,2.50
2020,03,21,01,45,2.50
2020,03,21,01,46,2.50
2020,03,21,01,47,2.50
2020,03,21,01,48,2.50
2020,03,21,01,49,2.50
2020,03,21,01,50,2.50
2020,03,21,01,51,2.50
2020,03,21,01,52,2.50
2020,03,21,01,53,2.50
2020,03,21,01,54,2.50
2020,03,21,01,55,2.50
2020,03,21,01,56,2.50
2020,03,21,01,57,2.40
2020,03,21,01,58,2.40
2020,03,21,01,59,2.40
2020,03,21,02,00,2.40
2020,03,21,02,01,2.40
2020,03,21,02,02,2.40
2020,03,21,02,03,2.40
2020,03,21,02,04,2.40
2020,03,21,02,05,2.40
2020,03,21,02,06,2.40
2020,03,21,02,07,2.40
2020,03,21,02,08,2.50
2020,03,21,02,09,2.50
2020,03,21,02,10,2.50
2020,03,21,02,11,2.50
2020,03,21,02,12,2.50
2020,03,21,02,13,2.40
2020,03,21,02,14,2.40
2020,03,21,02,15,2.40
2020,03,21,02,16,2.30
2020,03,21,02,17,2.30
2020,03,21,02,18,2.20
2020,03,21,02,19,2.20
2020,03,21,02,20,2.20
2020,03,21,02,21,2.20
2020,03,21,02,22,2.20
2020,03,21,02,23,2.20
2020,03,21,02,24,2.10
2020,03,21,02,25,2.10
2020,03,21,02,26,2.10
2020,03,21,02,27,2.10
2020,03,21,02,28,2.10
2020,03,21,02,29,2.00
2020,03,21,02,30,2.00
2020,03,21,02,31,2.00
2020,03,21,02,32,2.00
2020,03,21,02,33,1.90
2020,03,21,02,34,1.90
2020,03,21,02,35,1.90
2020,03,21,02,36,1.90
2020,03,21,02,37,1.80
2020,03,21,02,38,1.80
2020,03,21,02,39,1.80
2020,03,21,02,40,1.80
2020,03,21,02,41,1.80
2020,03,21,02,42,1.80
2020,03,21,02,43,1.80
2020,03,21,02,44,1.80
2020,03,21,02,45,1.70
2020,03,21,02,46,1.70
2020,03,21,02,47,1.70
2020,03,21,02,48,1.70
2020,03,21,02,49,1.70
2020,03,21,02,50,1.70
2020,03,21,02,51,1.70
2020,03,21,02,52,1.70
2020,03,21,02,53,1.70
2020,03,21,02,54,1.70
2020,03,21,02,55,1.70
2020,03,21,02,56,1.70
2020,03,21,02,57,1.60
2020,03,21,02,58,1.60
2020,03,21,02,59,1.60
2020,03,21,03,00,1.60
2020,03,21,03,01,1.60
2020,03,21,03,02,1.60
2020,03,21,03,03,1.60
2020,03,21,03,04,1.50
2020,03,21,03,05,1.50
2020,03,21,03,06,1.50
2020,03,21,03,07,1.50
2020,03,21,03,08,1.50
2020,03,21,03,09,1.50
2020,03,21,03,10,1.50
2020,03,21,03,11,1.40
2020,03,21,03,12,1.40
2020,03,21,03,13,1.40
2020,03,21,03,14,1.40
2020,03,21,03,15,1.40
2020,03,21,03,16,1.40
2020,03,21,03,17,1.40
2020,03,21,03,18,1.30
2020,03,21,03,19,1.30
2020,03,21,03,20,1.30
2020,03,21,03,21,1.30
2020,03,21,03,22,1.30
2020,03,21,03,23,1.30
2020,03,21,03,24,1.30
2020,03,21,03,25,1.30
2020,03,21,03,26,1.30
2020,03,21,03,27,1.30
2020,03,21,03,28,1.30
2020,03,21,03,29,1.30
2020,03,21,03,30,1.30
2020,03,21,03,31,1.30
2020,03,21,03,32,1.30
2020,03,21,03,33,1.30
2020,03,21,03,34,1.30
2020,03,21,03,35,1.30
2020,03,21,03,36,1.30
2020,03,21,03,37,1.20
2020,03,21,03,38,1.20
2020,03,21,03,39,1.20
2020,03,21,03,40,1.20
2020,03,21,03,41,1.20
2020,03,21,03,42,1.20
2020,03,21,03,43,1.10
2020,03,21,03,44,1.10
2020,03,21,03,45,1.10
2020,03,21,03,46,1.10
2020,03,21,03,47,1.10
2020,03,21,03,48,1.10
2020,03,21,03,49,1.10
2020,03,21,03,50,1.00
2020,03,21,03,51,1.00
2020,03,21,03,52,1.00
2020,03,21,03,53,1.00
2020,03,21,03,54,1.00
2020,03,21,03,55,1.00
2020,03,21,03,56,1.00
2020,03,21,03,57,1.00
2020,03,21,03,58,1.00
2020,03,21,03,59,0.90
2020,03,21,04,00,0.90
2020,03,21,04,01,0.90
2020,03,21,04,02,0.90
2020,03,21,04,03,0.90
2020,03,21,04,04,0.90
2020,03,21,04,05,0.90
2020,03,21,04,06,0.80
2020,03,21,04,07,0.80
2020,03,21,04,08,0.80
2020,03,21,04,09,0.80
2020,03,21,04,10,0.80
2020,03,21,04,11,0.80
2020,03,21,04,12,0.80
2020,03,21,04,13,0.80
2020,03,21,04,14,0.80
2020,03,21,04,15,0.80
2020,03,21,04,16,0.80
2020,03,21,04,17,0.80
2020,03,21,04,18,0.80
2020,03,21,04,19,0.80
2020,03,21,04,20,0.80
2020,03,21,04,21,0.80
2020,03,21,04,22,0.80
2020,03,21,04,23,0.80
2020,03,21,04,24,0.80
2020,03,21,04,25,0.80
2020,03,21,04,26,0.80
2020,03,21,04,27,0.80
2020,03,21,04,28,0.80
2020,03,21,04,29,0.80
2020,03,21,04,30,0.80
2020,03,21,04,31,0.80
2020,03,21,04,32,0.70
2020,03,21,04,33,0.70
2020,03,21,04,34,0.70
2020,03,21,04,35,0.70
2020,03,21,04,36,0.70
2020,03,21,04,37,0.70
2020,03,21,04,38,0.70
2020,03,21,04,39,0.60
2020,03,21,04,40,0.60
2020,03,21,04,41,0.60
2020,03,21,04,42,0.60
2020,03,21,04,43,0.60
2020,03,21,04,44,0.60
2020,03,21,04,45,0.60
2020,03,21,04,46,0.50
2020,03,21,04,47,0.50
2020,03,21,04,48,0.50
2020,03,21,04,49,0.50
2020,03,21,04,50,0.50
2020,03,21,04,51,0.40
2020,03,21,04,52,0.40
2020,03,21,04,53,0.40
2020,03,21,04,54,0.40
2020,03,21,04,55,0.40
2020,03,21,04,56,0.40
2020,03,21,04,57,0.40
2020,03,21,04,58,0.40
2020,03,21,04,59,0.40
2020,03,21,05,00,0.40
2020,03,21,05,01,0.40
2020,03,21,05,02,0.40
2020,03,21,05,03,0.40
2020,03,21,05,04,0.40
2020,03,21,05,05,0.40
2020,03,21,05,06,0.40
2020,03,21,05,07,0.40
2020,03,21,05,08,0.40
2020,03,21,05,09,0.40
2020,03,21,05,10,0.40
2020,03,21,05,11,0.40
2020,03,21,05,12,0.40
2020,03,21,05,13,0.40
2020,03,21,05,14,0.40
2020,03,21,05,15,0.40
2020,03,21,05,16,0.40
2020,03,21,05,17,0.40
2020,03,21,05,18,0.40
2020,03,21,05,19,0.40
2020,03,21,05,20,0.40
2020,03,21,05,21,0.40
2020,03,21,05,22,0.40
2020,03,21,05,23,0.40
2020,03,21,05,24,0.40
2020,03,21,05,25,0.40
2020,03,21,05,26,0.40
2020,03,21,05,27,0.40
2020,03,21,05,28,0.40
2020,03,21,05,29,0.40
2020,03,21,05,30,0.40
2020,03,21,05,31,0.40
2020,03,21,05,32,0.40
2020,03,21,05,33,0.40
2020,03,21,05,34,0.40
2020,03,21,05,35,0.40
2020,03,21,05,36,0.40
2020,03,21,05,37,0.40
2020,03,21,05,38,0.40
2020,03,21,05,39,0.40
2020,03,21,05,40,0.40
2020,03,21,05,41,0.40
2020,03,21,05,42,0.40
2020,03,21,05,43,0.40
2020,03,21,05,44,0.40
2020,03,21,05,45,0.30
2020,03,21,05,46,0.30
2020,03,21,05,47,0.30
2020,03,21,05,48,0.30
2020,03,21,05,49,0.30
2020,03,21,05,50,0.30
2020,03,21,05,51,0.20
2020,03,21,05,52,0.20
2020,03,21,05,53,0.20
2020,03,21,05,54,0.20
2020,03,21,05,55,0.20
2020,03,21,05,56,0.20
2020,03,21,05,57,0.10
2020,03,21,05,58,0.10
2020,03,21,05,59,0.10
2020,03,21,06,00,0.10
2020,03,21,06,01,0.10
2020,03,21,06,02,0.10
2020,03,21,06,03,0.10
2020,03,21,06,04,0.10
2020,03,21,06,05,0.10
2020,03,21,06,06,0.10
2020,03,21,06,07,0.10
2020,03,21,06,08,0.10
2020,03,21,06,09,-0.10
2020,03,21,06,10,-0.10
2020,03,21,06,11,-0.10
2020,03,21,06,12,-0.10
2020,03,21,06,13,-0.10
2020,03,21,06,14,-0.10
2020,03,21,06,15,-0.10
2020,03,21,06,16,-0.10
2020,03,21,06,17,-0.10
2020,03,21,06,18,-0.10
2020,03,21,06,19,-0.10
2020,03,21,06,20,-0.10
2020,03,21,06,21,-0.10
2020,03,21,06,22,-0.10
2020,03,21,06,23,-0.10
2020,03,21,06,24,-0.10
2020,03,21,06,25,-0.10
2020,03,21,06,26,-0.10
2020,03,21,06,27,-0.10
2020,03,21,06,28,-0.10
2020,03,21,06,29,-0.10
2020,03,21,06,30,-0.10
2020,03,21,06,31,-0.20
2020,03,21,06,32,-0.20
2020,03,21,06,33,-0.20
2020,03,21,06,34,-0.20
2020,03,21,06,35,-0.20
2020,03,21,06,36,-0.20
2020,03,21,06,37,-0.30
2020,03,21,06,38,-0.30
2020,03,21,06,39,-0.30
2020,03,21,06,40,-0.30
2020,03,21,06,41,-0.30
2020,03,21,06,42,-0.30
2020,03,21,06,43,-0.30
2020,03,21,06,44,-0.30
2020,03,21,06,45,-0.30
2020,03,21,06,46,-0.30
2020,03,21,06,47,-0.30
2020,03,21,06,48,-0.30
2020,03,21,06,49,-0.30
2020,03,21,06,50,-0.30
2020,03,21,06,51,-0.30
2020,03,21,06,52,-0.30
2020,03,21,06,53,-0.40
2020,03,21,06,54,-0.40
2020,03,21,06,55,-0.40
2020,03,21,06,56,-0.40
2020,03,21,06,57,-0.40
2020,03,21,06,58,-0.40
2020,03,21,06,59,-0.40
2020,03,21,07,00,-0.40
2020,03,21,07,01,-0.40
2020,03,21,07,02,-0.40
2020,03,21,07,03,-0.40
2020,03,21,07,04,-0.40
2020,03,21,07,05,-0.40
2020,03,21,07,06,-0.40
2020,03,21,07,07,-0.40
2020,03,21,07,08,-0.40
2020,03,21,07,09,-0.40
2020,03,21,07,10,-0.40
2020,03,21,07,11,-0.30
2020,03,21,07,12,-0.30
2020,03,21,07,13,-0.30
2020,03,21,07,14,-0.20
2020,03,21,07,15,-0.20
2020,03,21,07,16,-0.20
2020,03,21,07,17,-0.20
2020,03,21,07,18,-0.10
2020,03,21,07,19,-0.10
2020,03,21,07,20,-0.20
2020,03,21,07,21,-0.20
2020,03,21,07,22,-0.20
2020,03,21,07,23,-0.20
2020,03,21,07,24,-0.20
2020,03,21,07,25,-0.20
2020,03,21,07,26,-0.30
2020,03,21,07,27,-0.30
2020,03,21,07,28,-0.30
2020,03,21,07,29,-0.30
2020,03,21,07,30,-0.30
2020,03,21,07,31,-0.30
2020,03,21,07,32,-0.30
2020,03,21,07,33,-0.30
2020,03,21,07,34,-0.30
2020,03,21,07,35,-0.20
2020,03,21,07,36,-0.20
2020,03,21,07,37,-0.20
2020,03,21,07,38,-0.10
2020,03,21,07,39,-0.10
2020,03,21,07,40,-0.10
2020,03,21,07,41,0.00
2020,03,21,07,42,0.10
2020,03,21,07,43,0.10
2020,03,21,07,44,0.20
2020,03,21,07,45,0.20
2020,03,21,07,46,0.30
2020,03,21,07,47,0.30
2020,03,21,07,48,0.40
2020,03,21,07,49,0.40
2020,03,21,07,50,0.40
2020,03,21,07,51,0.50
2020,03,21,07,52,0.50
2020,03,21,07,53,0.50
2020,03,21,07,54,0.50
2020,03,21,07,55,0.60
2020,03,21,07,56,0.60
2020,03,21,07,57,0.60
2020,03,21,07,58,0.60
2020,03,21,07,59,0.70
2020,03,21,08,00,0.70
2020,03,21,08,01,0.70
2020,03,21,08,02,0.80
2020,03,21,08,03,0.80
2020,03,21,08,04,0.90
2020,03,21,08,05,1.00
2020,03,21,08,06,1.10
2020,03,21,08,07,1.10
2020,03,21,08,08,1.20
2020,03,21,08,09,1.30
2020,03,21,08,10,1.30
2020,03,21,08,11,1.30
2020,03,21,08,12,1.40
2020,03,21,08,13,1.50
2020,03,21,08,14,1.60
2020,03,21,08,15,1.60
2020,03,21,08,16,1.70
2020,03,21,08,17,1.80
2020,03,21,08,18,1.80
2020,03,21,08,19,1.80
2020,03,21,08,20,1.90
2020,03,21,08,21,2.00
2020,03,21,08,22,2.10
2020,03,21,08,23,2.10
2020,03,21,08,24,2.20
2020,03,21,08,25,2.30
2020,03,21,08,26,2.40
2020,03,21,08,27,2.50
2020,03,21,08,28,2.60
2020,03,21,08,29,2.70
2020,03,21,08,30,2.80
2020,03,21,08,31,2.80
2020,03,21,08,32,2.90
2020,03,21,08,33,3.00
2020,03,21,08,34,3.10
2020,03,21,08,35,3.10
2020,03,21,08,36,3.20
2020,03,21,08,37,3.30
2020,03,21,08,38,3.40
2020,03,21,08,39,3.50
2020,03,21,08,40,3.50
2020,03,21,08,41,3.60
2020,03,21,08,42,3.80
2020,03,21,08,43,3.90
2020,03,21,08,44,4.00
2020,03,21,08,45,4.20
2020,03,21,08,46,4.40
2020,03,21,08,47,4.50
2020,03,21,08,48,4.70
2020,03,21,08,49,4.90
2020,03,21,08,50,5.00
2020,03,21,08,51,5.10
2020,03,21,08,52,5.30
2020,03,21,08,53,5.40
2020,03,21,08,54,5.50
2020,03,21,08,55,5.60
2020,03,21,08,56,5.70
2020,03,21,08,57,5.90
2020,03,21,08,58,6.00
2020,03,21,08,59,6.10
2020,03,21,09,00,6.20
2020,03,21,09,01,6.30
2020,03,21,09,02,6.40
2020,03,21,09,03,6.40
2020,03,21,09,04,6.50
2020,03,21,09,05,6.60
2020,03,21,09,06,6.70
2020,03,21,09,07,6.80
2020,03,21,09,08,6.80
2020,03,21,09,09,6.80
2020,03,21,09,10,6.90
2020,03,21,09,11,6.90
2020,03,21,09,12,7.00
2020,03,21,09,13,7.00
2020,03,21,09,14,7.10
2020,03,21,09,15,7.30
2020,03,21,09,16,7.40
2020,03,21,09,17,7.60
2020,03,21,09,18,7.70
2020,03,21,09,19,7.90
2020,03,21,09,20,8.00
2020,03,21,09,21,8.10
2020,03,21,09,22,8.20
2020,03,21,09,23,8.40
2020,03,21,09,24,8.50
2020,03,21,09,25,8.50
2020,03,21,09,26,8.60
2020,03,21,09,27,8.50
2020,03,21,09,28,8.50
2020,03,21,09,29,8.50
2020,03,21,09,30,8.60
2020,03,21,09,31,8.70
2020,03,21,09,32,8.70
2020,03,21,09,33,8.90
2020,03,21,09,34,8.90
2020,03,21,09,35,9.00
2020,03,21,09,36,9.10
2020,03,21,09,37,9.20
2020,03,21,09,38,9.20
2020,03,21,09,39,9.20
2020,03,21,09,40,9.20
2020,03,21,09,41,9.20
2020,03,21,09,42,9.20
2020,03,21,09,43,9.20
2020,03,21,09,44,9.20
2020,03,21,09,45,9.30
2020,03,21,09,46,9.40
2020,03,21,09,47,9.40
2020,03,21,09,48,9.50
2020,03,21,09,49,9.60
2020,03,21,09,50,9.70
2020,03,21,09,51,9.70
2020,03,21,09,52,9.80
2020,03,21,09,53,9.80
2020,03,21,09,54,9.80
2020,03,21,09,55,9.80
2020,03,21,09,56,9.90
2020,03,21,09,57,9.90
2020,03,21,09,58,9.90
2020,03,21,09,59,9.90
2020,03,21,10,00,9.90
2020,03,21,10,01,9.90
2020,03,21,10,02,9.90
2020,03,21,10,03,10.10
2020,03,21,10,04,10.10
2020,03,21,10,05,10.10
2020,03,21,10,06,10.10
2020,03,21,10,07,10.10
2020,03,21,10,08,10.10
2020,03,21,10,09,10.10
2020,03,21,10,10,10.00
2020,03,21,10,11,9.90
2020,03,21,10,12,10.00
2020,03,21,10,13,10.10
2020,03,21,10,14,10.10
2020,03,21,10,15,10.10
2020,03,21,10,16,10.10
2020,03,21,10,17,10.20
2020,03,21,10,18,10.20
2020,03,21,10,19,10.30
2020,03,21,10,20,10.30
2020,03,21,10,21,10.40
2020,03,21,10,22,10.40
2020,03,21,10,23,10.40
2020,03,21,10,24,10.40
2020,03,21,10,25,10.40
2020,03,21,10,26,10.40
2020,03,21,10,27,10.40
2020,03,21,10,28,10.30
2020,03,21,10,29,10.30
2020,03,21,10,30,10.30
2020,03,21,10,31,10.30
2020,03,21,10,32,10.40
2020,03,21,10,33,10.40
2020,03,21,10,34,10.40
2020,03,21,10,35,10.50
2020,03,21,10,36,10.60
2020,03,21,10,37,10.60
2020,03,21,10,38,10.60
2020,03,21,10,39,10.70
2020,03,21,10,40,10.70
2020,03,21,10,41,10.70
2020,03,21,10,42,10.80
2020,03,21,10,43,10.80
2020,03,21,10,44,10.80
2020,03,21,10,45,10.90
2020,03,21,10,46,10.90
2020,03,21,10,47,10.90
2020,03,21,10,48,10.80
2020,03,21,10,49,10.80
2020,03,21,10,50,10.90
2020,03,21,10,51,10.90
2020,03,21,10,52,10.90
2020,03,21,10,53,10.90
2020,03,21,10,54,10.90
2020,03,21,10,55,11.00
2020,03,21,10,56,11.10
2020,03,21,10,57,11.10
2020,03,21,10,58,11.10
2020,03,21,10,59,11.10
2020,03,21,11,00,11.10
2020,03,21,11,01,11.10
2020,03,21,11,02,11.10
2020,03,21,11,03,11.20
2020,03,21,11,04,11.20
2020,03,21,11,05,11.20
2020,03,21,11,06,11.20
2020,03,21,11,07,11.20
2020,03,21,11,08,11.20
2020,03,21,11,09,11.20
2020,03,21,11,10,11.20
2020,03,21,11,11,11.10
2020,03,21,11,12,11.10
2020,03,21,11,13,11.10
2020,03,21,11,14,11.10
2020,03,21,11,15,11.10
2020,03,21,11,16,11.20
2020,03,21,11,17,11.20
2020,03,21,11,18,11.30
2020,03,21,11,19,11.30
2020,03,21,11,20,11.40
2020,03,21,11,21,11.40
2020,03,21,11,22,11.40
2020,03,21,11,23,11.40
2020,03,21,11,24,11.40
2020,03,21,11,25,11.40
2020,03,21,11,26,11.50
2020,03,21,11,27,11.60
2020,03,21,11,28,11.60
2020,03,21,11,29,11.60
2020,03,21,11,30,11.70
2020,03,21,11,31,11.70
2020,03,21,11,32,11.70
2020,03,21,11,33,11.80
2020,03,21,11,34,11.80
2020,03,21,11,35,11.80
2020,03,21,11,36,11.80
2020,03,21,11,37,11.90
2020,03,21,11,38,11.90
2020,03,21,11,39,12.00
2020,03,21,11,40,12.00
2020,03,21,11,41,12.10
2020,03,21,11,42,12.10
2020,03,21,11,43,12.20
2020,03,21,11,44,12.20
2020,03,21,11,45,12.30
2020,03,21,11,46,12.30
2020,03,21,11,47,12.30
2020,03,21,11,48,12.30
2020,03,21,11,49,12.30
2020,03,21,11,50,12.30
2020,03,21,11,51,12.30
2020,03,21,11,52,12.30
2020,03,21,11,53,12.30
2020,03,21,11,54,12.40
2020,03,21,11,55,12.40
2020,03,21,11,56,12.40
2020,03,21,11,57,12.40
2020,03,21,11,58,12.40
2020,03,21,11,59,12.40
2020,03,21,12,00,12.40
2020,03,21,12,01,12.50
2020,03,21,12,02,12.50
2020,03,21,12,03,12.60
2020,03,21,12,04,12.70
2020,03,21,12,05,12.60
2020,03,21,12,06,12.50
2020,03,21,12,07,12.40
2020,03,21,12,08,12.40
2020,03,21,12,09,12.30
2020,03,21,12,10,12.30
2020,03,21,12,11,12.30
2020,03,21,12,12,12.20
2020,03,21,12,13,12.20
2020,03,21,12,14,12.20
2020,03,21,12,15,12.20
2020,03,21,12,16,12.30
2020,03,21,12,17,12.30
2020,03,21,12,18,12.30
2020,03,21,12,19,12.30
2020,03,21,12,20,12.30
2020,03,21,12,21,12.30
2020,03,21,12,22,12.30
2020,03,21,12,23,12.30
2020,03,21,12,24,12.40
2020,03,21,12,25,12.40
2020,03,21,12,26,12.40
2020,03,21,12,27,12.40
2020,03,21,12,28,12.40
2020,03,21,12,29,12.40
2020,03,21,12,30,12.40
2020,03,21,12,31,12.40
2020,03,21,12,32,12.40
2020,03,21,12,33,12.30
2020,03,21,12,34,12.30
2020,03,21,12,35,12.40
2020,03,21,12,36,12.50
2020,03,21,12,37,12.50
2020,03,21,12,38,12.60
2020,03,21,12,39,12.70
2020,03,21,12,40,12.70
2020,03,21,12,41,12.70
2020,03,21,12,42,12.70
2020,03,21,12,43,12.80
2020,03,21,12,44,12.80
2020,03,21,12,45,12.80
2020,03,21,12,46,12.70
2020,03,21,12,47,12.70
2020,03,21,12,48,12.60
2020,03,21,12,49,12.60
2020,03,21,12,50,12.60
2020,03,21,12,51,12.50
2020,03,21,12,52,12.50
2020,03,21,12,53,12.50
2020,03,21,12,54,12.60
2020,03,21,12,55,12.60
2020,03,21,12,56,12.60
2020,03,21,12,57,12.60
2020,03,21,12,58,12.60
2020,03,21,12,59,12.70
2020,03,21,13,00,12.70
2020,03,21,13,01,12.80
2020,03,21,13,02,12.80
2020,03,21,13,03,12.80
2020,03,21,13,04,12.90
2020,03,21,13,05,12.90
2020,03,21,13,06,13.00
2020,03,21,13,07,13.10
2020,03,21,13,08,13.10
2020,03,21,13,09,13.10
2020,03,21,13,10,13.10
2020,03,21,13,11,13.10
2020,03,21,13,12,13.10
2020,03,21,13,13,13.00
2020,03,21,13,14,13.00
2020,03,21,13,15,12.90
2020,03,21,13,16,12.90
2020,03,21,13,17,12.90
2020,03,21,13,18,12.90
2020,03,21,13,19,12.80
2020,03,21,13,20,12.80
2020,03,21,13,21,12.80
2020,03,21,13,22,12.80
2020,03,21,13,23,12.80
2020,03,21,13,24,12.70
2020,03,21,13,25,12.70
2020,03,21,13,26,12.70
2020,03,21,13,27,12.60
2020,03,21,13,28,12.60
2020,03,21,13,29,12.60
2020,03,21,13,30,12.60
2020,03,21,13,31,12.50
2020,03,21,13,32,12.50
2020,03,21,13,33,12.50
2020,03,21,13,34,12.50
2020,03,21,13,35,12.50
2020,03,21,13,36,12.50
2020,03,21,13,37,12.50
2020,03,21,13,38,12.50
2020,03,21,13,39,12.60
2020,03,21,13,40,12.60
2020,03,21,13,41,12.70
2020,03,21,13,42,12.70
2020,03,21,13,43,12.60
2020,03,21,13,44,12.60
2020,03,21,13,45,12.60
2020,03,21,13,46,12.60
2020,03,21,13,47,12.70
2020,03,21,13,48,12.70
2020,03,21,13,49,12.70
2020,03,21,13,50,12.70
2020,03,21,13,51,12.70
2020,03,21,13,52,12.70
2020,03,21,13,53,12.60
2020,03,21,13,54,12.60
2020,03,21,13,55,12.60
2020,03,21,13,56,12.60
2020,03,21,13,57,12.60
2020,03,21,13,58,12.60
2020,03,21,13,59,12.70
2020,03,21,14,00,12.70
2020,03,21,14,01,12.70
2020,03,21,14,02,12.80
2020,03,21,14,03,12.80
2020,03,21,14,04,12.80
2020,03,21,14,05,12.80
2020,03,21,14,06,12.80
2020,03,21,14,07,12.90
2020,03,21,14,08,13.00
2020,03,21,14,09,13.00
2020,03,21,14,10,13.00
2020,03,21,14,11,13.00
2020,03,21,14,12,13.10
2020,03,21,14,13,13.10
2020,03,21,14,14,13.20
2020,03,21,14,15,13.30
2020,03,21,14,16,13.30
2020,03,21,14,17,13.40
2020,03,21,14,18,13.40
2020,03,21,14,19,13.40
2020,03,21,14,20,13.30
2020,03,21,14,21,13.20
2020,03,21,14,22,13.10
2020,03,21,14,23,12.90
2020,03,21,14,24,12.80
2020,03,21,14,25,12.70
2020,03,21,14,26,12.60
2020,03,21,14,27,12.60
2020,03,21,14,28,12.50
2020,03,21,14,29,12.50
2020,03,21,14,30,12.50
2020,03,21,14,31,12.50
2020,03,21,14,32,12.30
2020,03,21,14,33,12.30
2020,03,21,14,34,12.10
2020,03,21,14,35,12.00
2020,03,21,14,36,11.90
2020,03,21,14,37,11.80
2020,03,21,14,38,11.80
2020,03,21,14,39,11.80
2020,03,21,14,40,11.70
2020,03,21,14,41,11.70
2020,03,21,14,42,11.50
2020,03,21,14,43,11.40
2020,03,21,14,44,11.20
2020,03,21,14,45,11.10
2020,03,21,14,46,11.10
2020,03,21,14,47,11.00
2020,03,21,14,48,10.90
2020,03,21,14,49,10.80
2020,03,21,14,50,10.80
2020,03,21,14,51,10.80
2020,03,21,14,52,10.80
2020,03,21,14,53,10.80
2020,03,21,14,54,10.90
2020,03,21,14,55,10.90
2020,03,21,14,56,10.90
2020,03,21,14,57,10.90
2020,03,21,14,58,10.90
2020,03,21,14,59,10.80
2020,03,21,15,00,10.80
2020,03,21,15,01,10.80
2020,03,21,15,02,10.80
2020,03,21,15,03,10.80
2020,03,21,15,04,10.80
2020,03,21,15,05,10.80
2020,03,21,15,06,10.80
2020,03,21,15,07,10.80
2020,03,21,15,08,10.80
2020,03,21,15,09,10.90
2020,03,21,15,10,10.90
2020,03,21,15,11,10.90
2020,03,21,15,12,10.90
2020,03,21,15,13,10.90
2020,03,21,15,14,10.90
2020,03,21,15,15,10.90
2020,03,21,15,16,10.90
2020,03,21,15,17,10.90
2020,03,21,15,18,10.90
2020,03,21,15,19,10.90
2020,03,21,15,20,10.90
2020,03,21,15,21,10.90
2020,03,21,15,22,10.90
2020,03,21,15,23,10.90
2020,03,21,15,24,11.00
2020,03,21,15,25,11.10
2020,03,21,15,26,11.10
2020,03,21,15,27,11.10
2020,03,21,15,28,11.10
2020,03,21,15,29,11.10
2020,03,21,15,30,11.00
2020,03,21,15,31,10.90
2020,03,21,15,32,10.90
2020,03,21,15,33,10.90
2020,03,21,15,34,10.90
2020,03,21,15,35,10.90
2020,03,21,15,36,10.90
2020,03,21,15,37,10.90
2020,03,21,15,38,10.90
2020,03,21,15,39,10.90
2020,03,21,15,40,10.90
2020,03,21,15,41,10.90
2020,03,21,15,42,10.90
2020,03,21,15,43,11.10
2020,03,21,15,44,11.10
2020,03,21,15,45,11.10
2020,03,21,15,46,10.90
2020,03,21,15,47,10.90
2020,03,21,15,48,10.90
2020,03,21,15,49,10.90
2020,03,21,15,50,10.90
2020,03,21,15,51,10.90
2020,03,21,15,52,10.90
2020,03,21,15,53,10.90
2020,03,21,15,54,10.90
2020,03,21,15,55,10.90
2020,03,21,15,56,11.10
2020,03,21,15,57,11.00
2020,03,21,15,58,10.90
2020,03,21,15,59,10.90
2020,03,21,16,00,10.80
2020,03,21,16,01,10.70
2020,03,21,16,02,10.70
2020,03,21,16,03,10.70
2020,03,21,16,04,10.80
2020,03,21,16,05,10.80
2020,03,21,16,06,10.80
2020,03,21,16,07,10.70
2020,03,21,16,08,10.70
2020,03,21,16,09,10.70
2020,03,21,16,10,10.60
2020,03,21,16,11,10.60
2020,03,21,16,12,10.60
2020,03,21,16,13,10.60
2020,03,21,16,14,10.60
2020,03,21,16,15,10.70
2020,03,21,16,16,10.70
2020,03,21,16,17,10.80
2020,03,21,16,18,10.80
2020,03,21,16,19,10.90
2020,03,21,16,20,10.90
2020,03,21,16,21,10.90
2020,03,21,16,22,11.00
2020,03,21,16,23,11.10
2020,03,21,16,24,11.10
2020,03,21,16,25,11.10
2020,03,21,16,26,11.10
2020,03,21,16,27,11.20
2020,03,21,16,28,11.30
2020,03,21,16,29,11.30
2020,03,21,16,30,11.30
2020,03,21,16,31,11.40
2020,03,21,16,32,11.40
2020,03,21,16,33,11.40
2020,03,21,16,34,11.40
2020,03,21,16,35,11.40
2020,03,21,16,36,11.30
2020,03,21,16,37,11.30
2020,03,21,16,38,11.30
2020,03,21,16,39,11.20
2020,03,21,16,40,11.10
2020,03,21,16,41,11.10
2020,03,21,16,42,11.00
2020,03,21,16,43,10.90
2020,03,21,16,44,10.80
2020,03,21,16,45,10.80
2020,03,21,16,46,10.70
2020,03,21,16,47,10.60
2020,03,21,16,48,10.60
2020,03,21,16,49,10.60
2020,03,21,16,50,10.40
2020,03,21,16,51,10.40
2020,03,21,16,52,10.40
2020,03,21,16,53,10.30
2020,03,21,16,54,10.30
2020,03,21,16,55,10.30
2020,03,21,16,56,10.20
2020,03,21,16,57,10.20
2020,03,21,16,58,10.20
2020,03,21,16,59,10.30
2020,03,21,17,00,10.30
2020,03,21,17,01,10.30
2020,03,21,17,02,10.30
2020,03,21,17,03,10.30
2020,03,21,17,04,10.30
2020,03,21,17,05,10.40
2020,03,21,17,06,10.30
2020,03,21,17,07,10.30
2020,03,21,17,08,10.30
2020,03,21,17,09,10.30
2020,03,21,17,10,10.30
2020,03,21,17,11,10.30
2020,03,21,17,12,10.30
2020,03,21,17,13,10.30
2020,03,21,17,14,10.30
2020,03,21,17,15,10.30
2020,03,21,17,16,10.30
2020,03,21,17,17,10.30
2020,03,21,17,18,10.30
2020,03,21,17,19,10.40
2020,03,21,17,20,10.40
2020,03,21,17,21,10.40
2020,03,21,17,22,10.40
2020,03,21,17,23,10.40
2020,03,21,17,24,10.40
2020,03,21,17,25,10.40
2020,03,21,17,26,10.40
2020,03,21,17,27,10.40
2020,03,21,17,28,10.40
2020,03,21,17,29,10.40
2020,03,21,17,30,10.40
2020,03,21,17,31,10.40
2020,03,21,17,32,10.40
2020,03,21,17,33,10.40
2020,03,21,17,34,10.40
2020,03,21,17,35,10.40
2020,03,21,17,36,10.40
2020,03,21,17,37,10.40
2020,03,21,17,38,10.40
2020,03,21,17,39,10.40
2020,03,21,17,40,10.40
2020,03,21,17,41,10.40